sat.trackr.live / text

‹ back to catalog

QIANFAN-85

NORAD 63171 · 2025-046N

PAYLOAD ACTIVE UNKNOWN

§ Identity

Operator
Country
PRC
Launch date
2025-03-11
Launch site
WSC
Launch vehicle
Mass (kg)
RCS (m²)

External: N2YO · Heavens-Above · Gunter

§ Orbital elements

Epoch: 2026-05-25T01:54:50.806080Z

Period
106.59 min
Inclination
88.9690°
Eccentricity
0.0013654
Mean motion
13.51014790 rev/d
Perigee alt
1,058.4 km
Apogee alt
1,078.7 km
Semi-major
7,446.7 km
B*
7.1981e-5
RAAN
302.9880°
Arg perigee
24.1135°
Mean anomaly
336.0653°
Rev number
6,952

§ Raw data

QIANFAN-851 63171U 25046N   26145.07975470  .00000059  00000+0  71981-4 0  99952 63171  88.9690 302.9880 0013654  24.1135 336.0653 13.51014790 69524

JSON: /api/v1/satellites/63171 · /tle

For live sub-satellite position, see the globe view (requires WebGL).

§ Visibility from observer

Set your observer location to see the next 7 days of passes ≥ 10°. The values pass through the URL so the page stays shareable.

No JS? Fill the form by hand. The geolocation button needs JavaScript.